Location: Unspecified
(40.7945°N, 0.0000°E)
Time: 03:40:08
(UTC+00:00)

Altair - Pass Details

Date: 30 January 2021
Orbit: 1501 x 1682 km, 47.2° (Epoch: 01 March)

Event Time Altitude Azimuth Distance (km) Brightness Sun altitude
Rises 04:30:21 0° 251° (WSW) 4,828 - -30.7°
Reaches altitude 10° 04:33:27 10° 253° (WSW) 3,865 - -30.1°
Exits shadow 04:40:33 52° 269° (W) 1,983 7.6 -28.8°
Maximum altitude 04:43:25 75° 339° (NNW) 1,717 7.5 -28.2°
Drops below altitude 10° 04:53:39 10° 65° (ENE) 3,949 10.5 -26.3°
Sets 04:56:51 0° 68° (ENE) 4,937 11.2 -25.7°
